User: anonymous   Login
Location: Unspecified
(0.0000°N, 0.0000°E)
Time: 12:00:01
(UTC+00:00)
Language:

OBJECT-A - Orbit

View from above orbital plane
View from above orbital plane
View from above satellite
View from above satellite

Ground track
Ground track

The orbit data is extracted from the following two-line orbital elements,

1 40381U 15004A   17256.91026844 0.00000000  00000-0  00000-0 0    04
2 40381  97.3575 327.2532 0002000 316.0464  43.9535 15.27639935    03
Epoch (UTC): 13 September 2017 21:50:47
Eccentricity: 0.0002000
inclination: 97.3575°
perigee height: 481 km
apogee height: 484 km
right ascension of ascending node: 327.2532°
argument of perigee: 316.0464°
revolutions per day: 15.27639935
mean anomaly at epoch: 43.9535°
orbit number at epoch: 0

The dashed part of the orbit path shows where the satellite is in the earth's shadow,  

DLR